www.pogodaiklimat.ru

Погода и климат >> Архив погоды >> Гана >> Такоради


ПОГОДА Такоради

  • Прогноз погоды Такоради
  • Монитор погоды Такоради

АРХИВ ПОГОДЫ Такоради

Время (UTC), дата Ветер
(напр.,м/с)
 
Видим.   Явления Облачность Т
(С)
Тd
(С)
f
(%)
Тe
(С)
Тes
(С)
Комфортность P
(гПа)
Po
(гПа)
Тmin
(С)
Tmax
(С)
R
(мм)
R24
(мм)
S
(см)
06 19.06 штиль 0 5000 м дымка 8/8 300 м
[Sc]
+25.5 +24.8 96 +36 +36 очень
душно
1014.7 1013.7 +25.0
09 19.06 З 3 10 км 5/5 360 м
[Cu med, cong]
+28.8 +26.2 86 +44 +48 опасность
перегрева
1016.2 1015.2
12 19.06 Ю 4 15 км 4/3 420 м
[Cu med, cong Ci sp]
+31.1 +26.1 75 +47 +57 опасность
перегрева
1015.5 1014.5
15 19.06 ЮЗ 2 15 км 6/4 480 м
[Cu med, cong Ac trans Ci sp]
+31.0 +24.9 70 +44 +50 опасность
перегрева
1013.4 1012.4
18 19.06 ЮЗ 4 15 км 3/1 360 м
[Cu med, cong Ac lent]
+27.8 +26.0 90 +42 +42 опасность
перегрева
1013.4 1012.4 +31.1
21 19.06 ЮЗ 3 10 км 5/5 330 м
[Sc]
+26.4 +25.4 94 +38 +38 очень
душно
1014.9 1013.9
00 20.06 ЮЗ 3 10 км 9/1 300 м
[Sc Ac trans]
+26.4 +25.2 93 +38 +38 очень
душно
1014.3 1013.3
03 20.06 ЮЗ 1 10 км 9/9 360 м
[Sc]
+26.5 +25.1 92 +38 +38 очень
душно
1013.9 1012.9
06 20.06 ЮЗ 1 10 км 8/8 360 м
[Cb cap]
+26.0 +25.3 96 +38 +38 очень
душно
1014.2 1013.2 +25.1
09 20.06 Ю 2 10 км 4/4 400 м
[Cu med, cong]
+28.5 +25.7 85 +42 +48 опасность
перегрева
1015.9 1014.9
12 20.06 ЮЗ 5 15 км 3/3 420 м
[Cu med, cong]
+30.5 +26.0 77 +46 +53 опасность
перегрева
1015.5 1014.5
15 20.06 ЮЗ 5 18 км 1/1 420 м
[Cu med, cong]
+29.8 +25.3 77 +44 +49 опасность
перегрева
1013.8 1012.8
18 20.06 ЮЗ 5 15 км 6/6 360 м
[Cu Sc]
+27.5 +25.1 87 +40 +40 очень
душно
1014.2 1013.2 +29.9
21 20.06 ЮЗ 2 15 км 6/5 330 м
[Sc Ac lent]
+26.7 +24.9 90 +38 +38 очень
душно
1015.0 1014.0
03 21.06 ЮЗ 2 10 км 6/6 330 м
[Sc]
+26.6 +25.0 91 +38 +38 очень
душно
1014.7 1013.7
06 21.06 ЮЗ 3 10 км в посл. час дождь 9/5 330 м
[Sc Ac As]
+26.2 +24.8 92 +37 +37 очень
душно
1015.3 1014.3 +25.5 0.0
09 21.06 штиль 0 16 км 6/4 360 м
[Cu Sc Ac trans]
+27.5 +25.1 87 +40 +46 очень
душно
1016.6 1015.6
12 21.06 ЮЗ 5 20 км 6/1 420 м
[Cu med, cong Ac trans Ci sp]
+29.8 +25.1 76 +43 +50 опасность
перегрева
1015.8 1014.8
15 21.06 ЮЗ 6 20 км 5/4 450 м
[Cu med, cong Ac trans Ci sp]
+29.5 +25.0 77 +43 +45 опасность
перегрева
1014.2 1013.2
00 22.06 ЮЗ 2 10 км 5/5 330 м
[Sc]
+26.7 +25.3 92 +39 +39 очень
душно
1016.1 1015.1
06 22.06 штиль 0 8000 м дымка {дождь} 5/5 300 м
[Sc]
+25.8 +24.9 95 +37 +37 очень
душно
1015.2 1014.2 +25.1 0.3
09 22.06 ЮЗ 4 10 км 8/4 330 м
[Cu Sc Ac trans]
+27.5 +25.3 88 +40 +42 очень
душно
1016.5 1015.5
12 22.06 СЗ 7 2500 м сильн. дождь 10/6 240 м
[Sc As op]
+25.0 +24.3 96 +35 +35 очень
душно
1016.1 1015.1 7
06 23.06 Ю 4 5000 м гроза без осадков 8/5 330 м
[Cb cap Ac trans]
+25.4 +24.5 95 +36 +36 очень
душно
1013.5 1012.5 +23.8 43
09 23.06 ЮЗ 2 10 км {гроза} 9/8 360 м
[Cu Sc Ac As]
+26.5 +25.1 92 +38 +39 очень
душно
1014.7 1013.7
12 23.06 ЮЗ 5 8000 м слаб. дождь {гроза} 9/4 330 м
[Cu Sc Ac As]
+26.3 +25.3 94 +38 +41 очень
душно
1014.2 1013.2 0.2
15 23.06 З 2 12 км {дождь} 9/3 360 м
[Cu Sc Ac As]
+27.1 +24.4 85 +38 +41 очень
душно
1012.1 1011.1
18 23.06 ЮЗ 5 10 км {дождь} 9/4 360 м
[Sc Ac trans]
+25.5 +24.3 93 +35 +35 очень
душно
1013.2 1012.2 +27.3 0.6
09 24.06 ЮЗ 3 10 км {дождь} 8/3 360 м
[Cu med, cong Ac trans]
+25.8 +24.8 94 +37 +40 очень
душно
1014.6 1013.6
12 24.06 СЗ 3 12 км {дождь} 9/5 360 м
[Sc Ac As]
+26.7 +24.7 89 +38 +42 очень
душно
1013.9 1012.9 0.0
15 24.06 ЮЗ 4 3000 м слаб. дождь 10/6 270 м
[Cb cap As op]
+24.4 +23.9 97 +33 +34 очень
душно
1012.8 1011.8
18 24.06 ЮЗ 3 10 км {дождь} 8/3 360 м
[Cu hum Ac trans]
+25.8 +24.4 92 +36 +36 очень
душно
1012.4 1011.4 +27.5 20
21 24.06 З 1 10 км 8/0 300 м
[Ac trans]
+24.7 +23.8 95 +34 +34 очень
душно
1014.0 1013.0
00 25.06 З 5 2000 м сильн. дождь 10/4 270 м
[Sc As op]
+23.0 +22.3 96 +31 +31 очень
душно
1014.1 1013.0 20
03 25.06 ЮЗ 2 10 км в посл. час дождь 9/1 240 м
[Sc Ac As]
+22.7 +22.4 98 +31 +31 очень
душно
1011.5 1010.4
09 25.06 З 2 10 км слаб. дождь 9/5 240 м
[Sc Ac As]
+23.4 +22.6 95 +32 +35 очень
душно
1014.4 1013.3
15 25.06 ЮЗ 5 15 км 9/3 360 м
[Cu med, cong Ac trans]
+26.7 +24.2 86 +37 +39 очень
душно
1012.5 1011.5
18 25.06 Ю 2 12 км 8/4 330 м
[Sc Ac trans]
+25.3 +23.5 90 +34 +34 очень
душно
1012.9 1011.9 +27.8 2
21 25.06 штиль 0 12 км 5/1 300 м
[Sc Ac trans]
+24.4 +23.5 95 +33 +33 очень
душно
1014.6 1013.6

 

Местоположение метеостанции Такоради (Гана): широта 4.88 долгота -1.77 высота над уровнем моря 9 м.

В архиве по умолчанию представлена погода Такоради за последнюю неделю. Архивные данные за месяц целиком и за предыдущие месяцы, начиная с января 2011 года, Вы можете получить, выбрав интересующий диапазон дат из раскрывающегося списка и нажав кнопку "Ввод!".


*Определитесь, кто Вы:
робот инопланетянин человек

Внимание! Время в таблицах - всемирное. Для получения местного времени необходимо прибавить поправку, которая равна 1 ч.

Смотрите также архив погоды в соседних городах и на ближайших метеорологических станциях:

Погода в Аксиме (Гана) (51 км)
Погода в Солтпонде (Гана) (85 км)
Погода в Аким Ода (Гана) (146 км)
Погода в Сефви Беквай (Гана) (159 км)
Погода в Адиаке (Кот-д'Ивуар) (176 км)
Погода в Аккра (Гана) (194 км)
Погода в Кумаси (Гана) (206 км)
Погода в Тема (Гана) (213 км)
Погода в Кофоридуа (Гана) (215 км)
Погода в Абетифи (Гана) (229 км)

Пояснения к столбцам:

Ветер - указаны скорость ветра в м/с - средняя за 10 мин, порывы в срок и между сроками (в фигурных скобках) и направление, откуда дует ветер: С - северный, СВ - северо-восточный, В - восточный, ЮВ - юго-восточный, Ю - южный, ЮЗ - юго-западный, З - западный, СЗ - северо-западный.
Видимость - горизонтальная дальность видимости в метрах или километрах. При видимости от 1 до 10 км при отсутствии осадков обычно наблюдается дымка, при ухудшении видимости до 1 км и менее - туман. В сухую погоду видимость может ухудшаться дымом, пылью или мглою.
Явления - указаны атмосферные явления, наблюдавшиеся в срок или в последний час перед сроком; фигурными скобками обозначены явления, наблюдавшиеся между сроками (за 1-3 часа до срока); квадратными скобками обозначены град или гололедные отложения с указанием их диаметра в мм.
Облачность - указаны через наклонную черту общая и нижняя облачность в баллах и высота нижней границы облаков в метрах; квадратными скобками обозначены формы облаков: Ci - перистые, Cs - перисто-слоистые, Cc - перисто-кучевые, Ac - высококучевые, As - высокослоистые, Sc - слоисто-кучевые, Ns - слоисто-дождевые, Cu - кучевые, Cb - кучево-дождевые. Подробнее классификацию облаков см. в Атласе облаков (PDF).
T - Температура воздуха - температура, измеренная на высоте 2 м над землей.
Td - Температура точки росы - температура, при понижении до которой содержащийся в воздухе водяной пар достигнет насыщения.
f - Относительная влажность воздуха - влажноcть воздуха, измеренная на высоте 2 м над землей.
Te - Эффективная температура - температура, которую ощущает одетый по сезону человек в тени. Характеристика душности погоды. При расчете учитывается влияние влажности воздуха и скорости ветра на теплоощущения человека.
Tes - Эффективная температура на солнце - температура, которую ощущает человек, с поправкой на солнечный нагрев. Характеристика знойности погоды. Зависит от высоты солнца над горизонтом, облачности и скорости ветра. Ночью, в пасмурную погоду, а также при ветре 12 м/с и более поправка равна нулю.
P - Атмосферное давление - приведенное к уровню моря атмосферное давление.
Po - Атмосферное давление - измеренное на уровне метеостанции атмосферное давление.
Tmin - Минимальная температура - минимум температуры воздуха на высоте 2 м над землей.
Tmax - Максимальная температура - максимум температуры воздуха на высоте 2 м над землей.
R - Количество осадков - Количество выпавших осадков за период времени, мм. При наведении курсора мыши на число - период времени, за который выпало указанное количество осадков.
R24 - Количество осадков - Количество выпавших осадков за 24 часа, мм.
S - Снежный покров - Высота снежного покрова, см. При наведении курсора мыши на число - состояние снежного покрова и степень покрытия местности в баллах.